User: anonymous   Login
Location: Sungai Apap
(2.6167°N, 113.3833°E)
Time: 20:09:59
(UTC+00:00)
Language:

SL-24 R/B - RUBIN 2 - Orbit

View from above orbital plane
View from above orbital plane
View from above satellite
View from above satellite

Ground track
Ground track

The orbit data is extracted from the following two-line orbital elements,

1 27610U 02058F   24197.63071207  .00000257  00000-0  90322-4 0  9994
2 27610  64.5578   4.2451 0316825 258.3600 170.2603 14.28855220124641
Epoch (UTC): 15 July 2024 15:08:13
Eccentricity: 0.0316825
inclination: 64.5578°
perigee height: 568 km
apogee height: 1023 km
right ascension of ascending node: 4.2451°
argument of perigee: 258.3600°
revolutions per day: 14.28855220
mean anomaly at epoch: 170.2603°
orbit number at epoch: 12464

The dashed part of the orbit path shows where the satellite is in the earth's shadow,  

DLR